Temp
4 4 4 4 3 3 3 3 2 1 -0 0 1 0 0 -0 -0 0 1 2 2 3 4 4 3 3 3 4 4 5 4 5 6 6 6 6 7 7 8 8 9 9 10 10 10
3 4 3 3 3 3 3 2 2 1 1 0 0 -0 -0 -0 -1 0 1 0 1 1 3 3 3 2 3 3 4 4 4 5 5 6 6 6 6 7 8 8 8 9 9 10 10
3 3 3 3 2 3 2 2 1 1 0 0 0 -0 -0 -0 -1 -0 0 0 -0 0 1 2 3 2 2 3 3 3 4 4 5 5 6 6 6 7 7 8 8 8 9 9 9
3 3 3 2 2 2 1 1 0 0 0 0 -0 -0 -1 -1 -2 -1 0 1 0 -0 1 1 2 2 2 2 2 3 4 4 5 5 5 6 6 7 7 9 8 8 8 9 9
3 3 2 2 2 1 1 0 -0 -1 -1 -1 -1 -1 -1 -1 -1 -0 -1 0 1 1 0 1 1 1 2 2 2 3 3 4 5 5 5 5 6 6 7 8 8 8 9 9 9
2 2 2 2 1 1 0 -0 -1 -2 -2 -2 -2 -2 -2 -2 -1 -1 -2 -2 -1 0 1 0 0 1 1 2 2 2 3 3 4 4 4 5 6 5 8 7 7 8 9 9 9
2 2 2 1 0 -1 -1 -2 -2 -2 -2 -3 -3 -3 -3 -1 -2 -2 -2 -2 -2 -1 -0 0 -0 0 0 2 2 2 2 2 4 4 4 5 6 6 7 7 8 9 9 9 9
2 2 1 0 -1 -2 -3 -3 -3 -3 -3 -3 -4 -4 -3 -1 -3 -2 -3 -2 -2 -2 -1 -1 -1 -0 0 1 2 2 2 3 4 3 4 4 5 6 7 7 7 8 9 9 9
1 2 1 -0 -0 -2 -2 -3 -4 -4 -4 -4 -4 -5 -3 -2 -2 -3 -3 -3 -2 -2 -2 -2 -1 -0 1 1 1 2 3 3 4 3 4 3 5 6 7 7 7 7 7 8 8
1 1 1 -0 -1 -1 -3 -3 -4 -4 -4 -5 -5 -5 -3 -3 -3 -3 -4 -3 -3 -3 -3 -2 -2 -1 -0 1 2 2 3 4 4 4 4 4 5 6 6 7 7 7 7 7 8
1 1 -0 -1 -0 -2 -2 -3 -3 -4 -4 -3 -4 -3 -3 -3 -3 -3 -4 -4 -4 -3 -3 -2 -2 -1 1 1 2 3 4 4 4 4 4 4 5 4 7 7 7 7 7 7 8
1 1 -0 -1 -1 -2 -3 -3 -3 -4 -4 -4 -4 -5 -5 -5 -4 -4 -4 -4 -4 -3 -3 -3 -3 -0 0 1 2 3 3 4 4 3 3 4 5 5 7 7 8 7 8 8 7
1 0 -0 -1 -1 -2 -3 -4 -4 -4 -3 -4 -4 -5 -5 -5 -5 -5 -4 -4 -3 -4 -3 -3 -2 -0 1 1 2 2 3 3 4 3 3 4 6 7 8 8 8 8 8 8 8
0 0 -0 -1 -1 -2 -3 -3 -4 -4 -4 -4 -4 -5 -5 -6 -5 -5 -5 -4 -4 -4 -3 -3 -0 -1 1 1 2 2 2 3 3 3 5 4 7 7 7 8 8 8 8 8 7
0 -0 -1 -1 -2 -2 -3 -3 -4 -4 -4 -4 -5 -5 -5 -5 -4 -4 -4 -4 -4 -4 -3 -2 -2 1 1 1 1 3 2 2 2 3 3 5 5 8 8 8 8 8 8 7 7
-0 -1 -1 -2 -2 -3 -3 -4 -4 -4 -4 -4 -5 -5 -5 -4 -5 -4 -4 -4 -4 -3 -3 -1 -1 1 1 1 1 1 2 2 2 2 5 6 5 8 7 7 8 7 7 6 6
-0 -1 -0 -2 -3 -4 -4 -4 -5 -4 -4 -4 -4 -5 -4 -5 -5 -4 -4 -5 -4 -3 -3 -2 -1 1 1 1 1 1 2 2 2 3 6 4 4 8 7 7 7 7 7 7 6
-0 -1 -0 -2 -3 -4 -4 -4 -4 -4 -4 -4 -4 -4 -5 -5 -5 -4 -5 -4 -4 -3 -3 -3 -1 1 1 1 1 2 3 5 6 6 7 3 6 7 7 7 8 8 7 6 6
-1 -1 -0 -2 -3 -4 -4 -5 -4 -4 -4 -4 -5 -5 -5 -5 -4 -4 -4 -4 -4 -2 -2 -3 -1 0 1 1 2 1 2 3 4 3 6 6 6 7 7 7 8 8 7 6 6
-1 -1 -1 -1 -2 -4 -4 -4 -4 -4 -3 -4 -4 -5 -4 -4 -4 -4 -4 -3 -3 -2 -2 -1 -1 -0 1 1 1 2 2 2 3 6 6 7 6 8 6 7 8 8 8 6 6
-2 -1 -1 -3 -2 -4 -4 -4 -4 -3 -3 -4 -4 -4 -3 -3 -3 -3 -3 -2 -1 -1 -1 -1 0 -1 -0 0 1 1 1 2 3 4 8 8 8 7 7 8 8 8 7 7 6
-2 -1 -2 -3 -2 -3 -3 -3 -3 -3 -3 -3 -3 -3 -3 -3 -3 -3 -3 -1 -0 -1 -1 0 2 2 0 1 2 3 2 2 3 4 4 5 8 6 7 7 8 8 7 6 5
-2 -2 -2 -1 -2 -2 -2 -3 -3 -2 -2 -3 -3 -3 -2 -3 -2 -2 -2 -0 1 -1 -1 1 2 2 1 0 1 2 1 2 3 4 5 6 7 6 6 7 7 7 7 6 6
-2 -3 -2 -2 -2 -2 -2 -2 -2 -1 -2 -1 -2 -2 -2 -2 -1 -0 -2 1 0 0 1 1 2 3 4 4 3 1 2 2 3 3 5 5 6 6 6 6 6 6 6 6 6
-2 -2 -2 -1 -2 -2 -1 -2 -1 -1 -1 -1 -1 -1 -1 -1 -1 -1 -1 0 0 1 1 1 2 2 3 3 3 4 4 4 2 3 4 6 4 5 5 5 5 5 5 5 5
-2 -2 -2 -1 -1 -2 -2 -1 -1 -1 -1 -1 -0 -1 -1 -0 -1 -0 -0 0 2 1 0 1 2 2 3 3 3 3 4 4 4 4 4 4 4 4 4 5 5 5 5 5 5
-2 -1 -2 -1 -1 -1 -1 -1 -0 -1 -0 -0 -0 -1 -1 -0 1 2 2 2 1 1 1 0 1 2 3 3 3 2 3 4 4 3 3 3 5 4 4 4 4 4 4 4 4
Height
3092 3090 3088 3087 3086 3085 3085 3085 3085 3085 3085 3086 3087 3089 3091 3092 3091 3093 3097 3106 3107 3110 3115 3121 3126 3131 3134 3137 3141 3143 3145 3145 3147 3147 3148 3146 3146 3146 3147 3147 3148 3149 3149 3148 3148
3087 3085 3083 3082 3081 3079 3079 3078 3078 3079 3079 3080 3082 3084 3085 3086 3085 3084 3095 3098 3103 3103 3107 3114 3119 3124 3127 3131 3134 3136 3138 3140 3143 3143 3144 3143 3144 3143 3145 3144 3146 3146 3146 3145 3145
3081 3080 3078 3077 3076 3074 3074 3072 3073 3073 3073 3074 3076 3078 3078 3080 3080 3076 3087 3091 3095 3096 3100 3106 3111 3117 3121 3125 3127 3130 3132 3137 3138 3140 3141 3140 3141 3140 3140 3141 3142 3142 3142 3142 3142
3077 3076 3074 3073 3071 3069 3068 3067 3067 3067 3068 3069 3070 3070 3071 3073 3078 3070 3077 3083 3088 3092 3095 3098 3105 3109 3114 3117 3123 3126 3129 3132 3135 3136 3136 3136 3137 3136 3135 3137 3137 3138 3138 3139 3139
3073 3072 3070 3069 3066 3065 3063 3062 3061 3061 3062 3063 3063 3064 3065 3066 3068 3071 3072 3077 3081 3085 3089 3095 3099 3103 3107 3114 3120 3120 3126 3127 3130 3131 3132 3132 3132 3132 3130 3135 3133 3133 3133 3134 3134
3068 3067 3066 3063 3060 3059 3057 3056 3055 3055 3055 3057 3058 3057 3059 3059 3064 3067 3068 3072 3077 3079 3082 3087 3094 3100 3105 3110 3113 3118 3120 3122 3126 3127 3128 3127 3129 3125 3130 3129 3127 3127 3128 3128 3130
3064 3062 3061 3059 3056 3054 3053 3050 3050 3050 3051 3052 3053 3053 3051 3057 3057 3060 3062 3065 3069 3074 3076 3081 3091 3096 3101 3104 3108 3115 3116 3118 3120 3122 3124 3124 3121 3123 3124 3123 3123 3122 3122 3123 3124
3059 3058 3057 3055 3052 3051 3049 3046 3045 3044 3046 3048 3048 3048 3043 3050 3052 3053 3056 3059 3063 3067 3071 3077 3085 3088 3092 3099 3104 3109 3112 3113 3116 3118 3119 3122 3115 3120 3120 3119 3116 3116 3116 3117 3118
3054 3053 3052 3050 3048 3046 3044 3043 3042 3042 3041 3042 3043 3043 3039 3041 3045 3050 3050 3054 3057 3062 3066 3072 3076 3079 3087 3092 3100 3099 3101 3106 3112 3112 3116 3115 3112 3115 3115 3114 3114 3113 3113 3113 3114
3049 3047 3047 3043 3043 3041 3039 3039 3037 3037 3037 3037 3037 3040 3036 3037 3037 3039 3044 3048 3052 3056 3059 3063 3068 3073 3078 3082 3079 3090 3097 3102 3106 3111 3108 3109 3106 3109 3110 3109 3110 3110 3109 3109 3111
3044 3041 3041 3039 3037 3035 3033 3032 3034 3033 3030 3031 3029 3029 3030 3032 3032 3034 3036 3042 3045 3048 3050 3054 3059 3058 3065 3074 3086 3092 3096 3099 3104 3106 3105 3104 3102 3103 3105 3104 3105 3105 3105 3106 3108
3039 3036 3036 3033 3031 3030 3027 3024 3026 3026 3024 3023 3022 3023 3025 3027 3029 3030 3032 3036 3039 3038 3042 3050 3048 3056 3064 3072 3081 3087 3091 3096 3101 3100 3101 3100 3095 3096 3098 3099 3099 3100 3101 3102 3104
3033 3031 3030 3027 3025 3024 3021 3021 3021 3021 3019 3014 3015 3015 3018 3022 3024 3025 3028 3031 3031 3032 3032 3037 3045 3055 3060 3067 3076 3083 3087 3093 3097 3096 3097 3096 3090 3091 3092 3092 3093 3094 3095 3097 3100
3029 3025 3024 3021 3021 3020 3017 3017 3016 3017 3014 3010 3007 3008 3012 3017 3017 3022 3023 3028 3027 3027 3031 3041 3046 3048 3054 3062 3071 3078 3084 3090 3092 3096 3095 3094 3088 3086 3087 3086 3087 3088 3089 3091 3095
3023 3020 3018 3015 3015 3015 3015 3012 3012 3015 3012 3006 3003 3004 3006 3012 3015 3015 3019 3022 3022 3024 3030 3032 3036 3043 3046 3053 3067 3077 3081 3087 3091 3093 3092 3091 3092 3081 3080 3081 3080 3081 3082 3085 3089
3017 3014 3013 3011 3009 3010 3008 3008 3009 3013 3004 3000 2999 3000 3005 3008 3012 3013 3015 3019 3022 3023 3027 3032 3036 3041 3047 3057 3066 3072 3079 3085 3089 3091 3087 3084 3087 3077 3076 3077 3074 3074 3078 3082 3086
3011 3009 3008 3006 3007 3005 3004 3004 3008 3002 2998 2997 2996 2998 3002 3005 3008 3009 3009 3015 3016 3020 3021 3028 3023 3034 3045 3053 3063 3070 3077 3082 3087 3087 3078 3079 3081 3073 3074 3073 3074 3075 3077 3080 3083
3005 3003 3003 3002 3000 3001 3000 3002 2998 2991 2991 2991 2994 2998 3001 3003 3006 3007 3010 3015 3016 3016 3020 3026 3023 3028 3037 3046 3049 3062 3069 3068 3069 3070 3071 3076 3072 3070 3070 3071 3071 3073 3075 3078 3081
2999 2998 2998 2998 2994 2994 2995 2994 2988 2986 2988 2989 2993 2996 3000 3001 3004 3006 3008 3011 3012 3014 3018 3024 3024 3023 3036 3043 3053 3057 3064 3070 3070 3070 3070 3068 3068 3068 3069 3069 3069 3070 3071 3074 3078
2993 2993 2993 2991 2990 2988 2990 2985 2984 2983 2985 2984 2988 2992 2995 2998 3002 3004 3007 3007 3011 3014 3019 3024 3025 3027 3033 3044 3051 3056 3063 3068 3067 3066 3066 3063 3065 3065 3067 3067 3066 3066 3067 3071 3074
2988 2987 2987 2986 2984 2983 2981 2979 2979 2980 2982 2984 2986 2989 2993 2996 3000 3003 3006 3006 3011 3017 3019 3024 3028 3032 3032 3039 3044 3051 3054 3061 3064 3065 3059 3058 3061 3063 3064 3064 3063 3063 3065 3068 3071
2984 2983 2983 2982 2981 2977 2975 2975 2977 2976 2977 2980 2985 2988 2990 2994 2999 3001 3004 3008 3009 3016 3019 3023 3028 3031 3035 3039 3044 3049 3050 3057 3061 3063 3064 3063 3062 3061 3063 3062 3062 3062 3063 3066 3070
2978 2979 2979 2977 2975 2972 2972 2972 2974 2973 2976 2977 2981 2985 2988 2993 3000 3000 3003 3006 3009 3015 3019 3024 3028 3031 3037 3042 3043 3046 3050 3055 3059 3059 3058 3060 3060 3059 3061 3062 3063 3063 3064 3066 3068
2975 2975 2975 2972 2972 2971 2971 2970 2969 2970 2973 2974 2978 2983 2986 2991 2995 2997 3000 3005 3008 3013 3021 3024 3025 3027 3030 3033 3037 3040 3044 3048 3053 3054 3055 3054 3056 3058 3059 3061 3062 3063 3064 3065 3065
2969 2970 2971 2968 2967 2968 2968 2966 2967 2968 2971 2972 2976 2980 2983 2987 2992 2995 3000 3003 3008 3013 3018 3021 3024 3026 3029 3031 3033 3035 3038 3041 3043 3046 3049 3050 3051 3053 3057 3057 3059 3060 3061 3062 3062
2964 2966 2966 2965 2964 2965 2963 2960 2962 2965 2967 2969 2972 2977 2982 2985 2989 2991 2995 3000 3003 3011 3014 3020 3024 3025 3026 3028 3030 3031 3033 3035 3037 3041 3042 3046 3045 3048 3050 3052 3053 3055 3056 3057 3059
2959 2961 2963 2963 2962 2961 2958 2956 2957 2960 2963 2966 2970 2974 2979 2984 2990 2995 2999 3001 3003 3006 3011 3019 3022 3024 3025 3026 3027 3027 3025 3027 3030 3033 3035 3037 3038 3042 3044 3046 3048 3049 3051 3053 3054
Wind_Speed
17 18 19 20 21 21 22 24 26 28 27 31 30 29 28 27 31 33 32 27 30 32 35 34 38 37 34 31 28 25 19 22 19 15 9 10 10 16 16 15 18 17 18 18 17
18 20 19 19 19 18 20 21 24 27 29 35 36 35 34 32 33 37 28 25 26 29 34 33 37 38 38 35 31 29 23 24 18 18 16 14 12 15 18 20 17 18 20 22 19
19 22 21 20 20 20 20 20 23 25 26 28 30 32 37 39 38 42 31 30 27 29 33 32 35 40 40 37 34 31 29 23 27 22 21 18 15 16 19 23 20 20 22 23 20
21 21 19 21 21 20 20 19 18 19 21 23 25 28 31 34 28 28 27 36 33 30 33 32 35 39 42 37 31 31 34 26 28 25 22 22 22 17 22 24 23 22 24 25 24
17 19 20 22 21 22 20 18 17 18 20 21 23 26 28 32 35 33 27 23 22 34 33 34 35 36 43 33 29 37 26 30 30 27 25 24 25 24 24 19 25 26 27 27 28
17 21 22 23 24 22 18 16 16 18 19 20 21 25 26 31 27 28 30 32 21 20 36 35 36 33 31 36 37 26 35 30 28 28 25 26 27 29 12 17 23 28 31 32 30
16 19 19 20 22 20 18 14 16 16 18 19 20 23 29 23 22 20 25 30 27 23 34 38 33 32 33 35 37 32 23 23 31 30 27 27 32 29 20 21 18 22 31 34 35
16 17 17 20 24 21 24 16 14 16 17 19 20 24 33 26 25 29 27 23 25 31 32 36 36 32 34 28 22 34 28 28 25 22 27 26 30 19 20 12 10 16 22 27 31
17 16 16 16 22 22 20 17 15 13 16 20 23 25 34 29 27 25 29 27 26 32 30 35 44 38 35 36 30 29 28 31 25 20 20 22 22 13 14 14 14 11 14 16 18
17 16 17 20 26 24 21 18 21 20 19 23 24 22 28 16 15 25 26 27 28 30 32 39 48 41 37 38 40 25 25 22 26 20 24 23 30 23 19 15 15 16 15 13 11
18 16 20 20 23 23 20 21 25 26 27 27 17 23 23 15 14 20 27 27 29 29 36 42 49 52 44 43 27 29 26 22 17 19 17 19 25 23 19 18 17 20 18 15 13
18 17 22 22 18 22 19 27 28 29 27 27 30 31 25 23 15 18 25 31 31 38 36 37 53 43 38 40 33 27 26 23 17 19 18 17 27 24 21 19 19 19 20 18 15
18 18 22 24 22 20 20 20 25 27 32 35 30 27 30 22 25 16 21 31 32 32 31 48 47 41 37 33 33 25 24 20 16 12 14 18 26 21 22 20 20 22 21 22 19
18 18 20 23 23 17 16 22 26 25 18 16 18 22 24 25 24 29 23 29 27 28 30 34 28 44 41 38 36 30 23 18 14 8 8 5 7 12 13 15 17 20 19 23 22
19 19 20 20 20 14 17 17 20 15 5 5 17 11 17 29 8 25 21 30 26 25 26 29 43 34 34 40 36 24 22 20 14 12 13 12 8 9 7 12 15 17 16 21 21
18 19 21 19 18 13 16 10 13 9 7 7 9 16 15 25 22 11 27 31 28 18 24 33 30 33 36 31 31 16 18 15 13 7 9 16 12 6 5 2 5 15 16 18 20
18 19 20 18 13 12 8 16 11 9 5 8 11 16 18 21 23 18 32 32 22 15 27 35 17 31 32 34 32 23 22 6 6 6 6 7 9 13 5 12 8 4 13 19 19
17 19 20 17 15 12 15 18 12 8 16 5 12 16 18 15 19 18 22 29 33 12 23 21 5 36 38 36 28 33 24 6 6 6 6 11 7 3 5 2 6 8 15 19 19
17 19 19 15 17 16 20 25 9 14 11 16 14 18 16 17 13 18 20 25 32 16 12 21 5 18 36 31 28 29 23 11 3 3 4 6 5 8 5 1 8 11 20 22 20
17 19 17 16 12 17 30 30 23 18 13 23 15 20 20 22 14 18 20 23 29 21 15 13 5 16 27 29 31 29 26 12 3 5 4 4 4 4 3 8 3 9 16 23 22
14 19 17 8 14 25 36 33 31 30 22 25 13 17 20 24 16 21 16 6 28 25 21 9 7 10 25 15 33 22 21 13 10 3 2 3 4 11 5 8 5 8 16 23 24
18 15 12 10 15 27 33 30 19 17 14 18 13 15 22 25 22 20 20 13 26 29 21 19 10 8 12 9 16 26 19 19 9 6 5 1 2 6 6 5 2 4 14 22 22
16 12 11 13 17 25 26 25 27 23 14 25 19 17 24 24 17 19 19 22 18 36 20 20 9 12 7 8 15 20 23 22 17 12 14 10 4 7 4 7 7 6 3 14 20
15 9 12 17 17 18 22 25 17 14 20 13 14 17 23 25 23 16 16 24 17 25 24 21 8 17 15 12 19 23 28 29 25 23 17 19 12 13 11 8 9 8 7 11 19
18 17 16 16 17 15 16 19 14 15 20 18 18 20 24 25 22 18 19 25 21 33 24 17 7 15 16 14 12 23 32 32 35 34 23 25 27 24 21 25 22 15 13 16 20
20 20 16 18 15 17 18 17 21 21 17 23 16 24 24 24 23 24 28 29 32 38 38 22 8 11 11 15 16 19 22 27 32 33 35 26 26 26 24 22 20 17 18 19 20
21 19 19 14 11 16 16 13 6 18 13 17 13 22 25 24 25 8 24 19 16 42 42 24 14 7 5 9 9 13 28 30 30 33 34 34 31 25 26 26 26 22 20 18 21
Wind_Direction
302 303 299 291 283 278 271 265 259 249 246 242 253 247 255 256 258 252 250 250 242 240 236 234 228 230 230 231 229 228 231 237 236 240 252 256 250 236 234 232 225 226 225 230 229
312 311 304 295 285 277 269 265 261 254 248 247 253 247 250 254 256 253 250 251 244 242 234 230 224 225 227 229 226 224 229 236 234 245 253 254 260 247 238 241 234 235 232 236 237
318 311 307 296 290 284 278 267 257 253 250 250 251 250 252 250 258 261 253 242 233 237 236 227 222 219 224 226 224 226 229 234 244 251 253 254 259 257 244 233 240 240 236 238 243
321 316 308 300 295 289 279 268 253 247 246 244 244 246 246 246 252 265 259 246 240 238 238 225 218 213 220 222 222 225 232 231 242 244 254 260 260 253 254 230 247 245 241 238 245
321 319 312 302 296 286 277 264 255 246 242 242 242 245 247 248 242 253 261 261 252 232 235 237 220 212 217 219 222 229 230 236 240 244 253 257 257 266 257 241 250 250 243 241 240
312 321 311 304 300 285 274 270 262 249 244 243 245 247 247 249 255 250 252 255 253 246 232 229 222 213 220 221 221 231 230 238 241 246 254 255 254 265 247 269 266 254 247 246 248
306 321 320 317 313 300 286 268 259 252 247 243 245 247 246 250 251 249 247 248 241 235 226 220 212 210 210 220 223 225 234 242 240 247 252 256 258 259 273 282 273 254 248 249 251
297 314 315 317 323 300 296 283 269 253 250 245 241 245 253 252 245 245 242 245 242 226 231 218 202 206 207 216 223 223 233 235 237 245 244 250 259 258 269 273 262 249 244 243 248
288 308 308 317 329 321 291 275 272 246 253 246 242 247 258 259 250 250 241 238 240 219 229 210 199 203 196 207 213 205 219 226 232 243 233 244 254 259 239 264 257 237 227 241 252
287 296 297 303 306 310 296 259 259 249 251 242 241 244 251 259 255 238 230 226 227 222 224 208 200 202 205 203 201 196 204 223 229 237 244 239 251 252 255 261 246 241 241 248 257
286 284 293 296 306 302 286 243 239 240 256 258 254 245 253 250 257 234 216 214 219 215 218 202 201 207 207 199 201 203 212 220 225 226 239 242 253 257 247 255 246 250 251 250 249
287 285 283 293 307 305 274 244 247 257 269 261 248 245 233 245 247 208 205 209 215 215 214 193 204 205 209 194 197 207 206 216 230 239 244 257 259 263 253 253 241 244 246 248 247
290 287 282 286 298 310 278 266 249 260 267 276 261 246 238 238 234 229 217 211 220 226 216 192 207 191 211 194 194 200 201 202 210 235 252 268 274 261 254 250 242 239 237 240 244
290 289 288 286 292 304 269 263 251 260 263 270 238 236 226 221 245 222 201 211 218 227 216 195 181 203 184 192 190 197 198 200 213 238 244 227 281 257 221 234 251 236 231 236 232
286 292 288 287 293 299 297 267 256 254 263 236 216 223 212 206 218 209 206 208 219 222 187 191 207 203 194 193 190 201 203 211 228 251 273 249 258 256 215 267 257 232 230 223 214
284 287 290 285 292 292 310 258 231 217 241 219 215 197 194 202 217 213 203 205 209 199 215 190 190 196 201 188 191 195 184 202 226 229 248 237 225 279 189 94 278 216 207 202 201
280 288 290 281 288 277 264 257 200 224 210 215 194 190 198 199 213 195 200 199 217 167 189 199 206 187 181 184 190 182 174 148 187 206 240 198 199 233 233 275 268 153 191 190 197
277 287 288 283 276 258 236 228 223 241 213 193 192 192 194 195 213 197 201 199 211 173 186 205 204 161 184 188 177 175 180 185 184 194 178 203 231 225 163 237 224 218 190 201 200
272 284 286 280 271 255 233 215 229 237 233 210 169 180 196 197 199 192 205 206 215 167 160 206 268 131 176 176 182 179 193 194 135 105 212 189 251 265 260 313 229 224 210 196 201
268 283 286 276 272 233 216 224 234 239 263 195 175 188 192 187 183 189 191 220 214 189 150 193 96 168 163 170 183 190 182 186 190 188 214 197 236 189 104 17 302 223 208 196 195
268 278 281 278 263 200 217 230 240 244 263 190 195 189 195 187 186 186 201 239 211 182 172 159 201 145 155 173 181 177 187 187 198 218 238 162 145 164 11 351 350 217 204 202 195
257 264 273 293 239 222 231 242 258 285 266 226 193 203 191 188 187 198 206 212 195 182 184 161 192 160 177 168 201 210 200 197 199 195 225 356 150 202 330 13 2 229 206 201 199
252 260 265 265 235 241 251 254 263 275 234 184 190 199 198 184 191 193 199 199 191 188 183 172 183 145 153 208 200 208 208 212 218 218 211 215 192 152 80 112 75 50 163 200 209
233 228 243 242 255 249 255 268 259 201 196 201 197 190 191 193 200 207 202 202 210 198 174 184 210 207 198 204 202 203 210 217 211 221 219 223 221 233 254 259 279 311 260 245 223
230 229 238 250 262 281 272 264 217 201 189 205 182 198 182 182 191 191 186 196 198 176 178 188 223 212 216 214 210 223 224 224 215 222 227 245 242 249 255 268 270 277 252 251 237
230 226 239 258 282 285 275 252 238 207 206 210 200 193 191 194 189 196 192 207 195 187 197 189 211 215 231 237 233 232 239 234 233 229 234 239 250 257 261 265 262 266 264 245 236
227 228 235 248 266 284 289 221 244 202 219 198 193 192 191 196 201 174 207 194 214 191 193 198 212 213 226 239 245 251 233 238 243 239 234 237 246 257 260 263 265 266 247 235 254